Flag for France Weather past 2 weeks in Strasbourg, France

Now
64 °F

Broken clouds.


Feels Like: 64 °F
Forecast: 42 / 67 °F
Wind: 8 mph from North

Location: Strasbourg Airport

Current Time: Sep 4, 2015 at 1:08:04 PM

Latest Report: Sep 4, 2015 at 12:30 PM


Visibility: N/A

Pressure: 30.04 "Hg

Humidity: 52%

Dew point: 46 °F

Location of StrasbourgLocation

Historic Weather in Strasbourg — Graph

°F

Strasbourg temperature yesterday

Maximum temperature yesterday: 70 °F (at 11:30 AM)
Minimum temperature yesterday: 54 °F (at 10:30 PM)
Average temperature yesterday: 63 °F

Past Weeks' High & Low Weather Summary

 TemperatureHumidityPressure
High95 °F (Aug 30, 3:30 PM)100% (Sep 2, 7:00 AM)30.27 "Hg (Sep 2, 7:00 AM)
Low52 °F (Aug 21, 5:00 AM)26% (Aug 31, 3:00 PM)29.68 "Hg (Aug 24, 7:00 AM)
Average69 °F65%29.99 "Hg
* Reported Aug 20 12:00 Noon — Sep 4 12:00 Noon, Strasbourg, Weather by CustomWeather, © 2015

Note: Actual official high and low records may vary slightly from our data, if they occured in-between our weather recording intervals... More about our weather records

Advertising

Strasbourg weather history for previous 24 hours

 ConditionsComfort  
Time TempWeatherWind HumidityBarometerVisibility
12:00 PM
Fri, Sep 4
66 °FBroken clouds.5 mph49%30.04 "HgN/A
11:30 AM66 °FScattered clouds.5 mph49%30.04 "HgN/A
11:00 AM66 °FSunny.3 mph49%30.04 "Hg10 mi
10:30 AM64 °FSunny.1 mph52%30.04 "Hg10 mi
10:00 AM63 °FSunny.2 mph52%30.04 "Hg10 mi
9:30 AM59 °FSunny.3 mph63%30.04 "Hg10 mi
9:00 AM57 °FSunny.3 mph72%30.04 "Hg10 mi
8:30 AM57 °FSunny.2 mph72%30.04 "Hg10 mi
8:00 AM54 °FSunny.3 mph82%30.01 "Hg10 mi
7:30 AM52 °FClear.3 mph82%30.01 "Hg10 mi
7:00 AM52 °FClear.1 mph82%30.01 "Hg10 mi
6:30 AM52 °FClear.No wind82%30.01 "Hg10 mi
6:00 AM52 °FClear.1 mph82%30.01 "Hg10 mi
5:30 AM52 °FClear.2 mph82%30.01 "Hg10 mi
5:00 AM52 °FClear.1 mph82%30.01 "Hg10 mi
4:30 AM52 °FClear.2 mph82%30.01 "Hg10 mi
4:00 AM54 °FClear.2 mph77%30.01 "Hg10 mi
3:30 AM55 °FClear.2 mph77%30.01 "Hg10 mi
3:00 AM55 °FClear.1 mph77%30.01 "Hg10 mi
2:30 AM55 °FClear.2 mph72%30.01 "Hg10 mi
2:00 AM55 °FClear.2 mph77%30.01 "Hg10 mi
1:30 AM54 °FClear.1 mph82%30.01 "Hg10 mi
1:00 AM54 °FClear.3 mph82%30.01 "Hg10 mi
12:30 AM54 °FClear.5 mph77%30.01 "Hg10 mi
11:00 PM
Thu, Sep 3
54 °FClear.7 mph77%29.98 "Hg10 mi
10:30 PM54 °FClear.6 mph82%30.01 "Hg10 mi
10:00 PM55 °FClear.6 mph77%30.01 "Hg10 mi
9:30 PM59 °FPassing clouds.2 mph63%30.01 "HgN/A
9:00 PM59 °FSunny.3 mph63%29.98 "Hg10 mi
8:30 PM61 °FSunny.3 mph59%29.98 "Hg10 mi
8:00 PM64 °FSunny.7 mph52%29.98 "Hg10 mi
7:30 PM68 °FPassing clouds.8 mph46%29.95 "HgN/A
7:00 PM68 °FPassing clouds.8 mph46%29.95 "HgN/A
6:30 PM70 °FSunny.10 mph40%29.95 "Hg10 mi
6:00 PM70 °FBroken clouds.6 mph43%29.95 "HgN/A
5:30 PM70 °FMostly cloudy.1 mph43%29.95 "HgN/A
5:00 PM70 °FBroken clouds.2 mph43%29.95 "HgN/A
4:30 PM70 °FSunny.3 mph43%29.95 "Hg10 mi
4:00 PM68 °FMostly cloudy.2 mph46%29.95 "HgN/A
3:30 PM68 °FPartly sunny.7 mph46%29.95 "HgN/A
3:00 PM68 °FPartly sunny.12 mph49%29.98 "HgN/A
2:30 PM68 °FPartly sunny.8 mph46%29.95 "HgN/A
2:00 PM70 °FPassing clouds.7 mph46%29.95 "HgN/A
1:30 PM68 °FPartly sunny.8 mph49%29.98 "HgN/A
1:00 PM68 °FMostly cloudy.3 mph46%29.98 "HgN/A
Weather by CustomWeather, © 2015

See weather overviewHow to use our weather pages